Regional Weather Roundup
Issued by NWS

Home | Current Version | Previous Version | Graphics & Text | Print | Product List | Glossary Off
Versions: 1 2 3 4 5 6 7 8 9 10 11 12 13 14 15 16 17 18 19 20 21 22 23 24 25 26 27 28 29 30 31 32 33 34 35 36 37 38 39 40 41 42 43 44 45 46 47 48 49 50

000
ASUS43 KTOP 112108
RWRKS

WEATHER ROUNDUP FOR KANSAS
NATIONAL WEATHER SERVICE GOODLAND KS
300 PM CST THU FEB 11 2016

NOTE:  "FAIR" INDICATES FEW OR NO CLOUDS BELOW 12,000 FEET WITH NO
SIGNIFICANT WEATHER AND/OR OBSTRUCTIONS TO VISIBILITY.

KSZ001>006-013>018-027>032-041>047-112200-
NORTHWEST KANSAS

CITY           SKY/WX    TMP DP  RH WIND       PRES   REMARKS
GOODLAND       CLOUDY    59  31  34 W16       30.07F
HAYS           SUNNY     46  28  49 S9        30.11F
HILL CITY      SUNNY     46  34  62 S10       30.08F
RUSSELL        SUNNY     41  30  65 S8        30.11F
$$

KSZ061>065-074>080-084>089-112200-
SOUTHWEST KANSAS

CITY           SKY/WX    TMP DP  RH WIND       PRES   REMARKS
DODGE CITY     MOSUNNY   55  29  36 SW13      30.10F
ELKHART          N/A     66  27  23 SW6         N/A
GARDEN CITY    SUNNY     62  30  29 S12       30.08F
GREAT BEND     SUNNY     46  28  49 S12       30.12F
LIBERAL        SUNNY     63  32  31 SW13      30.11F
PRATT          SUNNY     47  28  47 S5        30.13F
$$

KSZ066>073-081>083-090>101-112200-
SOUTHEAST KANSAS

CITY           SKY/WX    TMP DP  RH WIND       PRES   REMARKS
CHANUTE        PTSUNNY   46  24  42 CALM      30.19F
COFFEYVILLE    MOSUNNY   49  24  37 NE6       30.19F
HUTCHINSON     SUNNY     44  25  47 SW3       30.16F
MEDICINE LODGE   N/A     50  27  40 CALM      30.13F
NEWTON         SUNNY     45  25  45 S5        30.18F
PARSONS        PTSUNNY   48  24  39 N7        30.20S
WICHITA INTL   PTSUNNY   47  24  40 CALM      30.16F
WICHITA JABRA  SUNNY     46  25  43 VRB3      30.16F
WICHITA MCCONL SUNNY     48  26  42 VRB2      30.16F
WINFIELD       PTSUNNY   51  25  36 CALM      30.18F
$$

KSZ007>012-019>026-033>040-048>060-102>105-112200-
NORTHEAST KANSAS

CITY           SKY/WX    TMP DP  RH WIND       PRES   REMARKS
CONCORDIA      CLOUDY    29  24  82 S8        30.17F
EMPORIA        CLOUDY    41  23  48 SE9       30.16F
LAWRENCE       CLOUDY    38  21  50 SE9       30.19F
MANHATTAN      CLOUDY    39  23  52 W5        30.18F
MARYSVILLE     CLOUDY    32  23  69 W6        30.19F
OLATHE IND     PTSUNNY   37  22  54 SE7       30.21F
OLATHE EXE     CLOUDY    36  20  52 E8        30.20F
SALINA         CLOUDY    39  25  57 VRB5      30.17F
TOPEKA BILLARD MOSUNNY   39  21  48 SE7       30.19F
TOPEKA FORBES  MOSUNNY   41  22  46 VRB6      30.17F
$$



USA.gov is the U.S. government's official web portal to all federal, state and local government web resources and services.